QPF
0.01 0.02 0.02 0.02 0.01 0.01 0.00 0.00 0.00 0.00 0.00 0.01 0.02 0.03 0.05 0.07 0.13 0.14 0.09 0.09 0.08 0.06 0.07 0.06 0.06 0.05 0.04 0.05 0.05 0.05 0.05 0.06 0.06 0.07 0.09 0.10 0.07 0.05 0.03 0.03 0.02 0.01 0.01
0.01 0.01 0.01 0.02 0.03 0.02 0.01 0.01 0.00 0.00 0.00 0.01 0.01 0.02 0.03 0.05 0.08 0.12 0.13 0.09 0.08 0.07 0.08 0.07 0.06 0.05 0.05 0.07 0.09 0.07 0.06 0.06 0.05 0.05 0.05 0.06 0.06 0.06 0.04 0.03 0.02 0.02 0.01
0.01 0.01 0.02 0.03 0.04 0.04 0.03 0.02 0.01 0.01 0.01 0.01 0.01 0.02 0.02 0.04 0.06 0.08 0.10 0.10 0.09 0.09 0.10 0.09 0.08 0.07 0.05 0.05 0.09 0.08 0.07 0.07 0.07 0.06 0.05 0.04 0.03 0.03 0.03 0.03 0.03 0.03 0.03
0.01 0.02 0.02 0.02 0.03 0.04 0.04 0.03 0.02 0.02 0.02 0.01 0.02 0.02 0.03 0.03 0.04 0.04 0.05 0.06 0.06 0.09 0.11 0.08 0.07 0.07 0.06 0.07 0.11 0.09 0.04 0.05 0.06 0.06 0.05 0.04 0.03 0.03 0.04 0.04 0.04 0.03 0.02
0.02 0.02 0.02 0.02 0.02 0.03 0.03 0.03 0.03 0.03 0.03 0.02 0.02 0.02 0.03 0.04 0.04 0.04 0.04 0.03 0.03 0.04 0.06 0.07 0.08 0.08 0.07 0.08 0.11 0.11 0.06 0.04 0.05 0.05 0.04 0.03 0.03 0.02 0.03 0.04 0.04 0.03 0.02
0.02 0.03 0.03 0.02 0.01 0.02 0.03 0.04 0.04 0.04 0.05 0.05 0.04 0.04 0.05 0.05 0.04 0.04 0.03 0.02 0.02 0.02 0.03 0.05 0.06 0.07 0.08 0.08 0.10 0.12 0.09 0.07 0.05 0.05 0.04 0.04 0.03 0.02 0.02 0.02 0.02 0.02 0.03
0.02 0.03 0.03 0.03 0.02 0.02 0.02 0.03 0.04 0.06 0.06 0.08 0.09 0.07 0.06 0.05 0.05 0.04 0.03 0.02 0.02 0.03 0.03 0.04 0.05 0.05 0.05 0.06 0.06 0.08 0.08 0.08 0.07 0.06 0.05 0.05 0.04 0.04 0.03 0.03 0.02 0.02 0.02
0.01 0.02 0.03 0.03 0.03 0.02 0.03 0.03 0.04 0.05 0.06 0.08 0.10 0.08 0.07 0.06 0.05 0.04 0.03 0.03 0.02 0.02 0.03 0.04 0.05 0.05 0.05 0.04 0.05 0.05 0.05 0.06 0.07 0.07 0.06 0.06 0.05 0.05 0.04 0.04 0.04 0.04 0.03
0.01 0.01 0.01 0.02 0.02 0.02 0.02 0.03 0.04 0.05 0.06 0.08 0.08 0.07 0.07 0.07 0.05 0.05 0.04 0.03 0.03 0.04 0.03 0.03 0.03 0.04 0.04 0.04 0.03 0.04 0.04 0.04 0.05 0.06 0.06 0.06 0.06 0.05 0.05 0.05 0.05 0.05 0.04
0.01 0.01 0.00 0.01 0.02 0.02 0.02 0.03 0.04 0.04 0.05 0.06 0.06 0.05 0.05 0.06 0.06 0.05 0.06 0.05 0.06 0.06 0.05 0.04 0.03 0.04 0.05 0.05 0.04 0.03 0.03 0.04 0.04 0.04 0.05 0.05 0.05 0.06 0.05 0.06 0.06 0.07 0.06
0.01 0.01 0.01 0.02 0.02 0.02 0.02 0.03 0.02 0.03 0.03 0.03 0.04 0.04 0.04 0.05 0.05 0.05 0.05 0.05 0.05 0.06 0.06 0.06 0.05 0.05 0.04 0.05 0.06 0.05 0.04 0.04 0.05 0.06 0.06 0.05 0.04 0.04 0.04 0.05 0.05 0.05 0.06
0.01 0.02 0.02 0.02 0.02 0.02 0.02 0.02 0.01 0.01 0.01 0.01 0.02 0.02 0.03 0.04 0.04 0.04 0.04 0.04 0.04 0.04 0.04 0.04 0.04 0.04 0.05 0.05 0.05 0.05 0.05 0.05 0.04 0.05 0.05 0.05 0.05 0.05 0.05 0.05 0.04 0.04 0.04
0.01 0.01 0.01 0.01 0.01 0.01 0.01 0.01 0.01 0.01 0.01 0.01 0.01 0.01 0.02 0.03 0.03 0.03 0.03 0.03 0.03 0.03 0.03 0.03 0.03 0.03 0.04 0.05 0.05 0.04 0.05 0.04 0.04 0.04 0.04 0.04 0.04 0.03 0.03 0.04 0.04 0.04 0.04
0.01 0.01 0.00 0.00 0.00 0.00 0.00 0.01 0.00 0.00 0.01 0.01 0.01 0.01 0.01 0.02 0.02 0.02 0.02 0.02 0.03 0.03 0.03 0.03 0.03 0.03 0.03 0.03 0.04 0.04 0.04 0.04 0.03 0.03 0.02 0.02 0.02 0.02 0.03 0.03 0.03 0.03 0.03
0.02 0.01 0.00 0.00 0.00 0.00 0.00 0.00 0.01 0.00 0.01 0.01 0.01 0.01 0.01 0.01 0.01 0.01 0.01 0.01 0.01 0.01 0.02 0.02 0.02 0.02 0.03 0.03 0.04 0.05 0.04 0.03 0.03 0.02 0.02 0.01 0.02 0.02 0.03 0.03 0.02 0.02 0.03
0.03 0.02 0.01 0.01 0.01 0.01 0.01 0.01 0.01 0.01 0.01 0.01 0.01 0.01 0.01 0.01 0.01 0.01 0.01 0.01 0.01 0.01 0.01 0.01 0.01 0.02 0.02 0.02 0.03 0.04 0.03 0.03 0.02 0.01 0.01 0.01 0.01 0.01 0.02 0.02 0.02 0.02 0.02
0.04 0.03 0.01 0.01 0.01 0.01 0.01 0.01 0.01 0.01 0.01 0.01 0.01 0.01 0.01 0.01 0.01 0.01 0.00 0.00 0.00 0.01 0.01 0.01 0.01 0.01 0.01 0.01 0.02 0.03 0.03 0.02 0.02 0.01 0.01 0.01 0.01 0.01 0.02 0.01 0.02 0.02 0.02
0.04 0.03 0.03 0.03 0.02 0.01 0.01 0.01 0.01 0.01 0.01 0.01 0.01 0.01 0.01 0.01 0.01 0.01 0.00 0.00 0.00 0.00 0.00 0.00 0.00 0.00 0.00 0.01 0.02 0.03 0.02 0.02 0.02 0.02 0.01 0.01 0.01 0.01 0.02 0.02 0.02 0.02 0.02
0.03 0.02 0.04 0.04 0.02 0.01 0.01 0.02 0.02 0.02 0.01 0.01 0.01 0.01 0.01 0.01 0.01 0.01 0.01 0.00 0.00 0.00 0.00 0.00 0.00 0.00 0.00 0.01 0.02 0.03 0.02 0.02 0.02 0.02 0.02 0.02 0.02 0.02 0.02 0.02 0.02 0.02 0.02
0.02 0.02 0.03 0.03 0.02 0.02 0.01 0.02 0.03 0.02 0.02 0.01 0.01 0.01 0.01 0.01 0.01 0.01 0.01 0.00 0.00 0.00 0.00 0.00 0.00 0.00 0.01 0.01 0.02 0.03 0.02 0.03 0.03 0.03 0.02 0.02 0.02 0.02 0.03 0.03 0.02 0.02 0.01
0.01 0.01 0.02 0.02 0.02 0.02 0.01 0.01 0.03 0.03 0.02 0.02 0.01 0.01 0.01 0.01 0.00 0.00 0.00 0.00 0.00 0.00 0.01 0.01 0.01 0.01 0.01 0.01 0.01 0.02 0.02 0.03 0.04 0.04 0.03 0.03 0.03 0.03 0.03 0.03 0.03 0.03 0.02
0.00 0.01 0.01 0.01 0.01 0.01 0.01 0.01 0.03 0.04 0.02 0.02 0.02 0.02 0.01 0.01 0.00 0.00 0.00 0.00 0.00 0.00 0.00 0.01 0.01 0.01 0.01 0.01 0.01 0.01 0.02 0.03 0.03 0.04 0.03 0.03 0.04 0.03 0.03 0.04 0.04 0.04 0.03
0.00 0.00 0.01 0.01 0.01 0.01 0.01 0.01 0.04 0.05 0.03 0.03 0.03 0.03 0.02 0.01 0.01 0.01 0.01 0.01 0.01 0.01 0.01 0.01 0.01 0.01 0.01 0.01 0.01 0.01 0.02 0.02 0.03 0.03 0.03 0.03 0.04 0.04 0.04 0.04 0.05 0.04 0.03
0.00 0.00 0.01 0.01 0.01 0.01 0.01 0.02 0.03 0.05 0.04 0.03 0.03 0.03 0.03 0.02 0.01 0.01 0.01 0.01 0.01 0.02 0.02 0.02 0.02 0.01 0.01 0.01 0.01 0.02 0.02 0.03 0.03 0.03 0.03 0.03 0.03 0.04 0.05 0.06 0.06 0.04 0.03
0.01 0.01 0.01 0.01 0.01 0.01 0.01 0.02 0.03 0.04 0.04 0.03 0.03 0.03 0.03 0.03 0.03 0.02 0.01 0.01 0.01 0.02 0.03 0.03 0.03 0.02 0.02 0.02 0.02 0.02 0.03 0.05 0.05 0.04 0.04 0.04 0.04 0.04 0.05 0.05 0.05 0.04 0.05
0.01 0.01 0.01 0.01 0.02 0.01 0.01 0.01 0.02 0.03 0.03 0.03 0.03 0.03 0.03 0.03 0.02 0.02 0.02 0.02 0.02 0.02 0.02 0.02 0.02 0.02 0.02 0.02 0.02 0.03 0.04 0.05 0.05 0.05 0.05 0.04 0.04 0.03 0.03 0.03 0.03 0.03 0.04
MSLP
1013.54 1013.76 1014.03 1014.35 1014.72 1015.14 1015.60 1016.11 1016.63 1017.16 1017.68 1018.17 1018.60 1018.98 1019.31 1019.58 1019.79 1019.98 1020.13 1020.27 1020.39 1020.49 1020.60 1020.70 1020.80 1020.91 1021.03 1021.16 1021.31 1021.46 1021.61 1021.75 1021.88 1022.00 1022.10 1022.19 1022.28 1022.38 1022.50 1022.64 1022.80 1022.97 1023.14
1012.85 1013.04 1013.28 1013.58 1013.93 1014.34 1014.81 1015.34 1015.91 1016.49 1017.07 1017.61 1018.10 1018.52 1018.88 1019.16 1019.39 1019.58 1019.74 1019.89 1020.02 1020.15 1020.27 1020.40 1020.53 1020.65 1020.78 1020.91 1021.04 1021.17 1021.29 1021.39 1021.48 1021.56 1021.63 1021.69 1021.77 1021.86 1021.97 1022.12 1022.31 1022.52 1022.73
1012.18 1012.35 1012.57 1012.85 1013.18 1013.58 1014.05 1014.58 1015.17 1015.78 1016.38 1016.95 1017.47 1017.92 1018.29 1018.60 1018.84 1019.04 1019.22 1019.39 1019.56 1019.72 1019.89 1020.06 1020.21 1020.36 1020.49 1020.61 1020.72 1020.81 1020.89 1020.95 1021.01 1021.05 1021.09 1021.13 1021.18 1021.26 1021.38 1021.54 1021.73 1021.96 1022.20
1011.57 1011.75 1011.97 1012.23 1012.54 1012.92 1013.37 1013.88 1014.45 1015.05 1015.65 1016.22 1016.74 1017.19 1017.56 1017.87 1018.13 1018.36 1018.58 1018.79 1019.01 1019.24 1019.47 1019.69 1019.89 1020.06 1020.20 1020.31 1020.40 1020.46 1020.50 1020.53 1020.55 1020.56 1020.58 1020.61 1020.66 1020.73 1020.84 1020.99 1021.18 1021.41 1021.66
1011.08 1011.28 1011.50 1011.76 1012.05 1012.39 1012.80 1013.26 1013.78 1014.33 1014.89 1015.42 1015.91 1016.34 1016.70 1017.02 1017.30 1017.56 1017.83 1018.11 1018.41 1018.72 1019.02 1019.31 1019.57 1019.78 1019.95 1020.06 1020.14 1020.18 1020.19 1020.20 1020.20 1020.20 1020.22 1020.24 1020.29 1020.36 1020.46 1020.60 1020.77 1020.97 1021.20
1010.72 1010.95 1011.19 1011.44 1011.70 1012.00 1012.34 1012.73 1013.16 1013.63 1014.11 1014.57 1015.00 1015.39 1015.73 1016.05 1016.35 1016.66 1017.00 1017.36 1017.76 1018.16 1018.57 1018.94 1019.27 1019.54 1019.74 1019.88 1019.96 1020.00 1020.01 1020.01 1020.02 1020.03 1020.06 1020.10 1020.15 1020.22 1020.32 1020.43 1020.57 1020.74 1020.93
1010.51 1010.77 1011.02 1011.25 1011.47 1011.70 1011.95 1012.24 1012.57 1012.93 1013.30 1013.67 1014.02 1014.35 1014.67 1014.99 1015.32 1015.69 1016.10 1016.56 1017.06 1017.58 1018.09 1018.57 1018.98 1019.32 1019.58 1019.75 1019.86 1019.92 1019.95 1019.98 1020.01 1020.05 1020.11 1020.18 1020.25 1020.34 1020.43 1020.52 1020.63 1020.74 1020.88
1010.42 1010.70 1010.94 1011.13 1011.29 1011.44 1011.59 1011.76 1011.96 1012.19 1012.45 1012.71 1012.98 1013.25 1013.54 1013.86 1014.23 1014.65 1015.15 1015.71 1016.33 1016.96 1017.59 1018.17 1018.68 1019.10 1019.42 1019.65 1019.81 1019.91 1019.99 1020.06 1020.13 1020.22 1020.33 1020.44 1020.55 1020.65 1020.74 1020.83 1020.90 1020.97 1021.04
1010.41 1010.68 1010.89 1011.03 1011.11 1011.16 1011.20 1011.24 1011.31 1011.42 1011.55 1011.70 1011.89 1012.11 1012.38 1012.70 1013.11 1013.60 1014.18 1014.84 1015.56 1016.31 1017.05 1017.73 1018.33 1018.84 1019.23 1019.53 1019.75 1019.91 1020.05 1020.18 1020.32 1020.47 1020.63 1020.80 1020.95 1021.08 1021.18 1021.26 1021.30 1021.33 1021.34
1010.43 1010.67 1010.82 1010.88 1010.88 1010.82 1010.74 1010.66 1010.61 1010.59 1010.61 1010.68 1010.80 1010.98 1011.23 1011.57 1012.01 1012.57 1013.23 1013.98 1014.79 1015.63 1016.46 1017.24 1017.92 1018.51 1018.98 1019.35 1019.64 1019.87 1020.08 1020.28 1020.48 1020.70 1020.92 1021.14 1021.34 1021.50 1021.62 1021.69 1021.72 1021.72 1021.68
1010.45 1010.62 1010.69 1010.67 1010.56 1010.40 1010.21 1010.02 1009.86 1009.74 1009.67 1009.67 1009.75 1009.90 1010.16 1010.52 1011.01 1011.62 1012.34 1013.16 1014.05 1014.96 1015.86 1016.70 1017.45 1018.09 1018.63 1019.06 1019.42 1019.72 1020.00 1020.27 1020.54 1020.82 1021.09 1021.36 1021.59 1021.79 1021.93 1022.01 1022.03 1022.00 1021.92
1010.44 1010.52 1010.50 1010.38 1010.18 1009.92 1009.63 1009.35 1009.11 1008.92 1008.80 1008.76 1008.81 1008.97 1009.23 1009.63 1010.15 1010.81 1011.58 1012.45 1013.38 1014.33 1015.26 1016.14 1016.93 1017.61 1018.19 1018.68 1019.09 1019.45 1019.78 1020.10 1020.43 1020.76 1021.08 1021.38 1021.65 1021.86 1022.01 1022.10 1022.11 1022.07 1021.97
1010.37 1010.37 1010.26 1010.05 1009.77 1009.43 1009.07 1008.73 1008.44 1008.21 1008.06 1008.01 1008.06 1008.23 1008.53 1008.95 1009.51 1010.20 1011.00 1011.89 1012.83 1013.79 1014.73 1015.60 1016.40 1017.09 1017.69 1018.20 1018.65 1019.05 1019.42 1019.79 1020.15 1020.51 1020.86 1021.18 1021.46 1021.68 1021.84 1021.92 1021.94 1021.89 1021.77
1010.24 1010.17 1010.00 1009.73 1009.38 1008.99 1008.60 1008.23 1007.91 1007.67 1007.53 1007.48 1007.56 1007.75 1008.08 1008.54 1009.13 1009.84 1010.65 1011.53 1012.46 1013.39 1014.29 1015.13 1015.89 1016.57 1017.15 1017.66 1018.12 1018.54 1018.94 1019.33 1019.71 1020.09 1020.44 1020.77 1021.05 1021.26 1021.41 1021.49 1021.50 1021.45 1021.34
1010.08 1009.97 1009.75 1009.44 1009.07 1008.67 1008.26 1007.89 1007.58 1007.35 1007.22 1007.21 1007.32 1007.55 1007.91 1008.40 1009.02 1009.73 1010.53 1011.39 1012.27 1013.14 1013.98 1014.76 1015.46 1016.08 1016.62 1017.11 1017.55 1017.97 1018.37 1018.76 1019.15 1019.53 1019.88 1020.19 1020.46 1020.66 1020.79 1020.86 1020.87 1020.82 1020.71
1009.89 1009.77 1009.55 1009.25 1008.89 1008.50 1008.11 1007.75 1007.47 1007.26 1007.17 1007.19 1007.33 1007.60 1008.00 1008.52 1009.14 1009.85 1010.63 1011.44 1012.26 1013.05 1013.80 1014.49 1015.10 1015.65 1016.13 1016.57 1016.98 1017.37 1017.76 1018.15 1018.53 1018.90 1019.23 1019.53 1019.77 1019.95 1020.06 1020.11 1020.11 1020.07 1019.98
1009.72 1009.62 1009.44 1009.17 1008.84 1008.48 1008.13 1007.81 1007.56 1007.39 1007.32 1007.38 1007.55 1007.86 1008.28 1008.81 1009.44 1010.14 1010.88 1011.63 1012.38 1013.08 1013.73 1014.31 1014.82 1015.28 1015.69 1016.06 1016.43 1016.79 1017.15 1017.53 1017.90 1018.25 1018.56 1018.84 1019.05 1019.21 1019.30 1019.33 1019.33 1019.29 1019.22
1009.59 1009.55 1009.42 1009.20 1008.93 1008.62 1008.31 1008.03 1007.81 1007.67 1007.63 1007.71 1007.90 1008.22 1008.66 1009.20 1009.82 1010.50 1011.20 1011.89 1012.56 1013.17 1013.72 1014.19 1014.60 1014.96 1015.28 1015.59 1015.90 1016.23 1016.57 1016.92 1017.27 1017.61 1017.91 1018.16 1018.36 1018.49 1018.56 1018.59 1018.58 1018.55 1018.51
1009.54 1009.56 1009.49 1009.34 1009.13 1008.88 1008.61 1008.36 1008.17 1008.04 1008.01 1008.10 1008.30 1008.62 1009.06 1009.59 1010.20 1010.84 1011.50 1012.14 1012.73 1013.25 1013.70 1014.08 1014.39 1014.66 1014.90 1015.15 1015.41 1015.69 1016.01 1016.34 1016.68 1017.00 1017.29 1017.53 1017.71 1017.83 1017.89 1017.91 1017.90 1017.88 1017.86
1009.59 1009.68 1009.67 1009.58 1009.42 1009.21 1008.98 1008.75 1008.57 1008.44 1008.41 1008.48 1008.67 1008.98 1009.40 1009.91 1010.49 1011.10 1011.71 1012.29 1012.81 1013.26 1013.63 1013.92 1014.15 1014.34 1014.52 1014.71 1014.92 1015.17 1015.46 1015.77 1016.10 1016.41 1016.69 1016.92 1017.10 1017.21 1017.27 1017.29 1017.28 1017.27 1017.28
1009.76 1009.90 1009.94 1009.90 1009.78 1009.60 1009.39 1009.17 1008.97 1008.83 1008.77 1008.81 1008.97 1009.24 1009.63 1010.10 1010.64 1011.21 1011.78 1012.30 1012.77 1013.16 1013.46 1013.68 1013.85 1013.98 1014.11 1014.25 1014.42 1014.64 1014.90 1015.20 1015.51 1015.81 1016.09 1016.31 1016.49 1016.60 1016.67 1016.70 1016.71 1016.71 1016.73
1010.06 1010.23 1010.30 1010.29 1010.19 1010.02 1009.81 1009.58 1009.36 1009.19 1009.09 1009.08 1009.19 1009.42 1009.75 1010.17 1010.66 1011.18 1011.70 1012.17 1012.59 1012.92 1013.18 1013.35 1013.47 1013.56 1013.65 1013.75 1013.90 1014.09 1014.33 1014.60 1014.90 1015.18 1015.45 1015.67 1015.85 1015.97 1016.05 1016.10 1016.13 1016.16 1016.20
1010.47 1010.65 1010.74 1010.73 1010.63 1010.46 1010.24 1009.98 1009.73 1009.52 1009.37 1009.31 1009.35 1009.51 1009.78 1010.14 1010.57 1011.03 1011.49 1011.91 1012.28 1012.57 1012.78 1012.93 1013.02 1013.08 1013.14 1013.22 1013.34 1013.51 1013.72 1013.97 1014.24 1014.51 1014.76 1014.98 1015.16 1015.29 1015.39 1015.46 1015.52 1015.58 1015.65
1010.97 1011.14 1011.21 1011.20 1011.09 1010.91 1010.67 1010.39 1010.10 1009.84 1009.64 1009.52 1009.50 1009.58 1009.78 1010.06 1010.42 1010.81 1011.20 1011.57 1011.89 1012.14 1012.32 1012.44 1012.51 1012.56 1012.60 1012.66 1012.76 1012.90 1013.08 1013.30 1013.54 1013.78 1014.02 1014.22 1014.40 1014.54 1014.67 1014.77 1014.87 1014.97 1015.08
1011.51 1011.65 1011.70 1011.67 1011.55 1011.35 1011.09 1010.78 1010.47 1010.17 1009.92 1009.74 1009.65 1009.67 1009.78 1009.99 1010.26 1010.57 1010.89 1011.19 1011.46 1011.67 1011.82 1011.92 1011.98 1012.01 1012.04 1012.09 1012.17 1012.28 1012.43 1012.62 1012.82 1013.03 1013.23 1013.42 1013.59 1013.75 1013.90 1014.04 1014.18 1014.34 1014.50
1012.02 1012.13 1012.16 1012.10 1011.97 1011.75 1011.48 1011.16 1010.83 1010.50 1010.22 1009.99 1009.85 1009.80 1009.84 1009.96 1010.15 1010.38 1010.62 1010.86 1011.06 1011.23 1011.34 1011.42 1011.46 1011.48 1011.50 1011.54 1011.59 1011.68 1011.80 1011.94 1012.10 1012.26 1012.43 1012.60 1012.77 1012.94 1013.11 1013.29 1013.49 1013.70 1013.91
Thickness
5597 5597 5597 5598 5599 5601 5603 5606 5607 5608 5609 5610 5610 5610 5610 5610 5609 5609 5609 5609 5608 5608 5608 5608 5608 5608 5608 5609 5610 5612 5613 5614 5614 5614 5614 5615 5614 5614 5613 5613 5612 5611 5610
5589 5588 5588 5589 5590 5591 5593 5596 5598 5599 5600 5600 5600 5600 5600 5600 5599 5598 5599 5599 5600 5599 5599 5598 5599 5599 5600 5602 5602 5603 5604 5605 5605 5606 5606 5607 5608 5607 5605 5604 5603 5603 5602
5580 5580 5579 5579 5580 5581 5583 5585 5587 5588 5589 5589 5589 5590 5590 5589 5589 5590 5590 5591 5591 5590 5590 5590 5590 5591 5592 5593 5594 5594 5595 5596 5596 5596 5598 5600 5603 5601 5600 5597 5596 5595 5595
5572 5570 5569 5569 5570 5571 5572 5574 5576 5577 5577 5579 5580 5582 5583 5584 5582 5581 5582 5582 5582 5581 5581 5582 5583 5583 5584 5585 5585 5586 5586 5587 5588 5587 5587 5589 5590 5590 5591 5590 5589 5588 5587
5563 5561 5560 5560 5560 5560 5562 5564 5565 5566 5567 5568 5570 5571 5573 5573 5572 5572 5572 5573 5573 5572 5572 5573 5574 5574 5575 5576 5576 5577 5577 5578 5578 5578 5578 5577 5578 5580 5580 5582 5581 5580 5579
5555 5553 5551 5551 5551 5551 5551 5553 5555 5556 5557 5558 5559 5560 5562 5563 5563 5563 5564 5564 5564 5564 5563 5563 5564 5565 5566 5567 5568 5568 5567 5567 5568 5568 5568 5568 5568 5569 5570 5572 5572 5572 5572
5547 5545 5544 5543 5543 5542 5543 5544 5545 5546 5547 5548 5549 5550 5551 5552 5552 5553 5554 5555 5556 5556 5555 5555 5555 5556 5556 5557 5558 5558 5558 5558 5558 5559 5559 5558 5559 5559 5559 5560 5562 5562 5563
5540 5537 5536 5535 5534 5533 5534 5535 5536 5536 5537 5537 5538 5539 5539 5540 5541 5542 5544 5545 5546 5547 5546 5546 5546 5546 5546 5546 5548 5548 5548 5548 5548 5549 5548 5548 5548 5548 5548 5548 5548 5551 5553
5530 5528 5527 5526 5525 5524 5524 5525 5525 5526 5527 5527 5527 5528 5529 5530 5531 5531 5532 5534 5535 5536 5536 5537 5537 5536 5536 5537 5537 5538 5538 5538 5538 5538 5538 5538 5539 5538 5538 5537 5537 5538 5542
5519 5518 5517 5516 5515 5514 5513 5513 5514 5514 5515 5516 5517 5518 5519 5519 5520 5521 5522 5523 5524 5525 5525 5527 5527 5527 5527 5527 5527 5528 5528 5528 5528 5528 5528 5528 5528 5527 5527 5526 5526 5527 5528
5509 5507 5506 5505 5504 5503 5502 5502 5503 5503 5504 5505 5506 5508 5509 5509 5510 5511 5511 5512 5513 5514 5515 5515 5516 5517 5518 5517 5517 5518 5517 5517 5518 5517 5517 5517 5516 5516 5516 5515 5515 5515 5515
5497 5496 5496 5496 5495 5494 5493 5493 5493 5493 5494 5495 5496 5497 5498 5499 5500 5501 5501 5502 5503 5503 5504 5505 5506 5507 5507 5508 5508 5508 5508 5507 5508 5507 5507 5507 5506 5505 5505 5504 5504 5504 5504
5487 5487 5486 5486 5486 5485 5485 5484 5485 5485 5485 5485 5486 5488 5488 5490 5491 5491 5491 5492 5493 5493 5493 5494 5496 5496 5497 5497 5498 5498 5498 5498 5498 5497 5497 5497 5496 5496 5495 5494 5493 5493 5493
5479 5478 5478 5477 5477 5477 5476 5476 5476 5475 5476 5476 5477 5479 5480 5481 5481 5481 5481 5482 5483 5483 5484 5484 5484 5485 5486 5487 5487 5488 5487 5488 5488 5487 5487 5486 5486 5486 5485 5484 5483 5482 5482
5470 5469 5469 5469 5469 5469 5468 5468 5467 5466 5466 5467 5469 5470 5470 5471 5471 5470 5471 5472 5472 5473 5473 5473 5473 5474 5475 5476 5477 5477 5477 5478 5478 5477 5476 5476 5475 5474 5474 5473 5473 5472 5471
5463 5461 5460 5460 5460 5460 5460 5459 5459 5458 5458 5459 5460 5460 5460 5460 5460 5460 5461 5462 5462 5462 5462 5462 5463 5463 5464 5465 5465 5465 5465 5466 5467 5466 5466 5465 5464 5463 5462 5462 5462 5461 5461
5455 5454 5453 5452 5451 5450 5450 5450 5450 5450 5450 5451 5451 5451 5451 5451 5450 5451 5451 5452 5452 5451 5451 5452 5452 5453 5454 5453 5454 5453 5454 5455 5455 5455 5455 5455 5454 5453 5453 5452 5452 5451 5451
5447 5446 5445 5444 5444 5442 5441 5441 5441 5441 5442 5443 5443 5443 5442 5442 5442 5442 5442 5442 5441 5441 5441 5442 5442 5442 5443 5442 5442 5442 5441 5442 5443 5443 5443 5443 5444 5443 5443 5443 5442 5443 5443
5437 5438 5436 5435 5435 5434 5433 5433 5433 5434 5434 5435 5435 5434 5434 5434 5434 5433 5433 5432 5431 5431 5431 5431 5431 5432 5432 5431 5431 5430 5430 5431 5432 5432 5432 5432 5433 5433 5432 5432 5433 5433 5434
5427 5427 5427 5426 5426 5426 5425 5424 5425 5426 5426 5425 5425 5425 5425 5425 5424 5424 5423 5422 5421 5421 5421 5421 5421 5421 5422 5421 5420 5418 5419 5421 5421 5421 5421 5421 5421 5421 5421 5421 5422 5423 5424
5418 5418 5417 5418 5418 5417 5415 5416 5417 5418 5417 5417 5417 5417 5416 5416 5416 5415 5414 5413 5412 5412 5412 5412 5412 5412 5412 5411 5410 5409 5408 5409 5410 5411 5411 5412 5411 5411 5411 5410 5412 5413 5413
5409 5409 5409 5409 5408 5407 5406 5407 5408 5408 5408 5408 5409 5409 5408 5408 5407 5406 5405 5404 5403 5403 5403 5403 5403 5402 5402 5401 5401 5400 5399 5399 5400 5401 5402 5402 5401 5401 5401 5401 5402 5402 5401
5401 5400 5399 5399 5399 5398 5397 5397 5399 5398 5399 5400 5401 5401 5401 5400 5399 5398 5397 5395 5395 5394 5394 5393 5393 5393 5393 5393 5392 5391 5391 5390 5391 5392 5392 5391 5391 5391 5392 5392 5392 5391 5391
5392 5391 5390 5391 5390 5389 5388 5389 5389 5389 5390 5392 5393 5393 5393 5393 5391 5389 5388 5387 5386 5385 5385 5384 5384 5384 5384 5384 5384 5383 5383 5382 5382 5382 5382 5381 5381 5381 5382 5382 5382 5381 5380
5383 5382 5382 5382 5382 5381 5380 5381 5381 5381 5383 5384 5385 5385 5385 5384 5383 5381 5380 5379 5378 5377 5376 5376 5375 5375 5376 5376 5375 5375 5376 5375 5375 5374 5373 5373 5373 5373 5373 5373 5372 5371 5370
5375 5374 5374 5373 5373 5372 5372 5372 5373 5373 5374 5376 5377 5377 5376 5375 5374 5373 5372 5370 5368 5368 5367 5366 5366 5367 5367 5367 5367 5367 5367 5366 5365 5365 5366 5365 5364 5364 5364 5363 5362 5361 5360